Find PVCC

NORAD ID: 58025 Int'l Des: 2023-155 Owner: ESA Country: I-ESA operational
LEOCIRCULARRETROGRADESSO

Live Position

Loading 3D Globe...

About PVCC

Description loading...

Upcoming Passes

Passes for default location (London). Set your location on the main map for personalized predictions.

Altitude History

Loading altitude history...

Two-Line Element Set

1 58025U 23155K 26106.93237846 .00003732 00000-0 20211-3 0 9997
2 58025 97.5722 183.6698 0003914 5.4150 354.7123 15.15241337138703
Epoch: Apr 16, 2026 • Age: 12 hours

Current Status

Altitude 548.7 km
Velocity 7.59 km/s
Sub-Earth Point -82.30°S, 103.38°W
Launch Date Oct 9, 2023
Age 2.5 years
Type other

Technical Details

Classification Payload
Mass 20.00 kg
Dry Mass 20.00 kg
Total Mass 20.00 kg
Length 0.30 m
Diameter 0.20 m
Span 0.80 m
Shape Box + 4 pan
Manufacturer ASPLB
Bus Type Cubesat 12U
Phase Status In Orbit
Owner/State ESA/I-ESA

Most Searched